Temperature
15 14 14 15 14 13 14 16 16 17 17 17 16 15 14 12 11 10 9 8 8 8 7 7 6 6 5 5 5 4 4 4 3 3 3 3 2 2 2 1 1 0 0 -0
14 12 12 13 14 14 14 15 15 16 16 16 14 12 12 11 10 9 8 8 8 7 6 6 6 5 5 4 4 4 4 3 3 2 2 2 1 1 1 0 -0 -0 -1 -1
15 12 12 14 15 14 13 13 14 15 15 14 12 11 11 10 9 8 8 7 7 6 6 5 5 5 4 4 4 4 3 3 2 2 1 1 1 0 -0 -1 -1 -1 -2 -2
13 12 12 16 13 13 13 13 13 13 12 12 11 10 9 9 8 8 7 7 6 6 5 5 4 4 4 4 3 3 2 2 1 1 1 0 -0 -1 -1 -2 -2 -2 -3 -3
12 13 14 15 12 12 12 13 12 12 11 10 8 8 8 7 7 7 6 6 6 5 5 4 4 4 3 3 3 2 2 1 1 0 -0 -0 -1 -1 -2 -2 -3 -3 -3 -3
11 11 12 15 12 10 12 13 12 11 11 9 8 11 11 7 7 6 6 5 5 5 4 4 3 3 3 2 2 1 1 1 1 -0 -1 -1 -1 -2 -2 -3 -3 -3 -4 -4
12 11 14 13 10 10 12 14 10 10 9 9 9 10 8 7 6 6 5 5 4 4 4 3 3 2 2 2 1 1 1 0 0 -0 -1 -1 -2 -2 -3 -4 -4 -4 -4 -5
11 11 12 11 10 12 13 9 9 9 8 8 8 7 7 6 6 5 5 4 4 3 3 3 2 2 1 1 1 0 0 -0 -1 -1 -1 -2 -3 -3 -4 -4 -4 -5 -5 -5
12 13 11 9 10 9 9 8 8 8 8 8 7 6 6 5 5 4 4 4 3 3 3 3 2 1 1 1 0 -0 -0 -1 -1 -2 -2 -3 -3 -4 -4 -5 -5 -5 -6 -5
10 10 9 8 8 8 8 8 8 8 7 7 6 6 5 5 4 4 3 3 3 2 2 2 1 1 0 0 -0 -1 -1 -1 -2 -3 -3 -4 -4 -5 -5 -5 -6 -6 -6 -6
10 9 7 7 7 7 8 8 7 7 6 6 5 5 4 4 4 3 3 3 2 2 1 1 1 1 0 -0 -1 -1 -2 -2 -3 -4 -4 -5 -5 -5 -5 -5 -6 -6 -6 -6
12 10 9 9 8 7 7 7 6 6 5 5 4 4 4 3 3 3 2 2 2 1 1 1 0 -0 -0 -1 -2 -2 -2 -3 -3 -4 -5 -5 -6 -6 -5 -6 -6 -6 -6 -6
9 8 8 7 7 6 6 6 5 5 5 4 4 3 3 3 3 2 2 1 1 1 0 -0 -0 -0 -1 -1 -2 -2 -3 -3 -4 -5 -5 -6 -6 -6 -6 -6 -6 -6 -6 -6
7 7 6 6 6 5 5 5 5 4 4 3 3 3 3 2 2 2 1 1 0 0 -0 -0 -1 -1 -1 -2 -2 -3 -3 -4 -4 -5 -6 -6 -6 -7 -7 -7 -7 -7 -7 -6
6 6 6 5 5 5 4 4 4 3 3 3 3 2 2 2 1 1 1 0 -0 -0 -1 -1 -1 -2 -2 -3 -3 -3 -4 -4 -5 -5 -6 -7 -7 -7 -7 -7 -7 -7 -7 -7
5 5 5 4 4 4 3 3 3 3 3 2 2 2 1 1 1 1 0 -0 -1 -1 -1 -2 -2 -2 -3 -3 -3 -4 -4 -5 -5 -6 -6 -7 -7 -7 -7 -8 -8 -8 -8 -7
4 3 3 3 3 3 3 3 3 2 2 2 1 1 1 0 0 -0 -0 -1 -1 -1 -1 -2 -2 -3 -3 -3 -4 -5 -5 -5 -6 -6 -7 -7 -7 -8 -8 -8 -8 -8 -8 -8
4 4 4 3 3 3 2 2 2 2 1 1 1 0 0 -0 -1 -1 -1 -1 -1 -1 -1 -2 -3 -3 -3 -4 -5 -5 -6 -6 -6 -7 -7 -7 -8 -8 -8 -8 -8 -8 -8 -8
3 3 3 3 2 2 2 2 1 1 1 0 0 -0 -1 -1 -1 -1 -2 -2 -2 -2 -2 -3 -3 -4 -4 -4 -5 -6 -6 -7 -7 -7 -8 -8 -8 -8 -8 -9 -9 -9 -9 -9
2 2 2 2 2 2 1 1 1 0 0 -0 -1 -1 -1 -1 -2 -2 -2 -3 -3 -3 -3 -4 -4 -4 -5 -5 -6 -6 -7 -7 -7 -8 -8 -8 -8 -9 -9 -9 -9 -9 -9 -9
1 1 1 1 1 1 1 0 -0 -0 -1 -1 -1 -2 -2 -2 -2 -3 -3 -3 -3 -4 -4 -4 -5 -5 -6 -6 -7 -7 -7 -8 -8 -8 -8 -9 -9 -9 -9 -9 -9 -10 -10 -10
1 1 1 1 0 0 -0 -0 -1 -1 -1 -2 -2 -2 -3 -3 -3 -3 -4 -4 -4 -4 -5 -5 -6 -6 -6 -7 -7 -7 -8 -8 -9 -9 -9 -9 -10 -10 -10 -10 -10 -10 -10 -10
0 0 -0 -0 -1 -1 -1 -1 -1 -2 -2 -2 -2 -3 -3 -4 -4 -5 -5 -5 -5 -5 -6 -6 -6 -7 -7 -7 -8 -8 -8 -9 -9 -9 -10 -10 -10 -10 -10 -10 -10 -10 -10 -10
-0 -1 -1 -1 -1 -1 -1 -2 -2 -2 -2 -3 -3 -3 -4 -4 -5 -5 -5 -5 -6 -6 -6 -7 -7 -7 -8 -8 -8 -9 -9 -9 -10 -10 -10 -10 -10 -10 -10 -10 -10 -10 -10 -10
-1 -1 -1 -2 -2 -2 -2 -2 -3 -3 -3 -3 -4 -4 -5 -5 -6 -6 -6 -6 -6 -7 -7 -7 -7 -8 -8 -9 -9 -9 -10 -10 -10 -11 -11 -11 -11 -11 -11 -11 -11 -11 -11 -11
-2 -2 -2 -2 -3 -3 -3 -3 -4 -4 -4 -5 -5 -5 -6 -6 -6 -7 -7 -7 -7 -8 -8 -8 -8 -9 -9 -9 -10 -10 -10 -10 -10 -11 -11 -11 -11 -11 -11 -11 -11 -11 -11 -11
-2 -2 -3 -3 -3 -3 -4 -4 -5 -5 -6 -6 -6 -6 -7 -7 -7 -8 -8 -8 -8 -8 -9 -9 -9 -10 -10 -10 -10 -10 -11 -11 -11 -11 -11 -11 -11 -11 -11 -11 -11 -11 -11 -11
Wind_Speed
3 1 4 7 10 13 16 15 12 13 14 13 10 9 7 6 5 6 6 6 4 3 3 3 4 5 6 7 8 8 10 11 12 13 13 14 14 15 16 16 16 17 17 18
3 2 4 7 13 16 17 17 19 19 18 9 4 6 7 7 6 6 6 5 3 3 4 5 5 6 7 8 9 10 11 12 12 13 13 14 15 16 16 17 17 17 17 18
5 2 3 10 14 17 12 12 13 16 11 5 6 8 7 6 6 5 4 3 3 3 4 5 6 7 8 9 10 10 11 12 12 13 14 15 16 16 17 17 17 18 18 18
3 3 9 5 2 6 11 11 13 9 5 7 7 5 4 4 5 4 3 2 3 4 5 6 6 7 8 9 10 11 12 12 13 13 15 16 16 17 17 17 16 17 18 18
5 6 9 7 4 6 8 8 10 12 9 8 6 4 4 4 4 3 2 2 3 4 5 6 7 7 8 10 10 11 12 13 13 14 15 16 17 18 17 17 17 17 17 18
5 6 8 3 4 4 4 7 7 11 11 10 9 6 5 6 4 2 1 2 3 4 6 7 7 7 9 11 11 12 13 14 14 15 16 17 17 18 17 16 17 17 17 17
10 9 9 2 6 7 6 3 8 10 11 11 9 3 4 5 3 2 2 3 4 5 7 7 8 8 10 12 13 13 13 14 15 15 16 16 17 16 16 16 17 17 17 16
9 9 10 7 9 8 3 4 8 9 9 8 6 4 3 3 2 2 3 4 5 6 8 8 8 9 11 13 14 13 14 15 16 16 15 14 16 16 16 16 16 16 16 16
10 7 1 7 5 2 4 7 7 7 6 7 6 4 4 3 3 4 4 5 6 7 9 10 9 10 13 14 14 14 15 16 16 16 15 15 15 16 15 14 13 14 14 15
6 7 5 5 5 4 5 6 6 6 6 6 5 4 4 3 4 4 5 6 7 8 10 12 12 12 13 14 14 15 16 17 16 16 16 15 13 13 13 13 13 14 14 15
7 4 4 7 9 8 7 7 7 6 5 5 5 4 4 4 5 5 6 7 8 9 11 13 13 14 14 14 14 15 16 16 15 14 15 15 14 13 14 14 15 16 15 15
8 7 7 6 10 11 10 8 8 7 5 4 4 4 4 5 6 7 8 8 9 11 12 14 15 15 15 14 14 15 15 15 13 13 13 13 14 15 15 17 22 24 23 21
2 3 3 5 9 9 9 8 7 6 5 4 3 4 5 6 7 8 9 10 11 13 14 15 15 16 16 14 14 14 15 15 13 13 13 13 14 14 16 16 19 21 21 22
5 6 5 6 7 8 8 8 6 5 3 3 3 4 5 7 8 10 11 12 13 14 15 15 16 16 16 14 14 15 15 15 14 13 13 13 14 14 14 15 16 15 16 20
6 4 5 7 8 8 7 7 6 4 3 3 4 5 6 8 10 12 13 13 13 14 15 15 16 17 15 14 14 15 14 12 12 13 13 14 14 14 14 16 15 15 15 15
6 7 8 9 9 8 7 6 5 4 4 4 6 7 8 10 12 13 14 13 14 15 16 16 16 16 15 14 14 13 13 16 16 14 14 14 13 14 14 14 15 15 14 14
9 8 8 8 8 7 6 5 5 4 4 6 8 9 10 11 13 14 14 14 14 15 16 16 16 15 14 13 13 12 12 14 17 15 13 13 13 14 14 14 14 14 14 15
6 7 8 8 7 6 5 4 3 4 6 7 8 9 11 12 14 15 15 15 15 16 16 15 14 14 14 14 12 12 12 13 13 13 13 14 14 14 14 14 15 16 14 15
7 7 6 5 5 3 3 3 4 5 7 8 9 11 12 13 14 14 15 15 16 17 15 13 15 15 15 15 14 12 13 14 14 14 14 17 16 14 14 14 14 15 14 14
6 6 5 3 2 1 2 4 5 7 8 9 10 12 13 14 14 14 14 14 13 13 14 16 16 15 14 14 15 12 14 14 15 15 14 14 14 14 14 14 15 14 14 14
5 4 3 1 1 3 4 5 6 8 9 9 10 12 13 14 14 13 13 14 14 13 14 17 14 12 13 14 17 13 13 14 14 14 14 14 14 14 14 15 14 14 14 13
2 1 0 2 3 5 6 6 7 9 10 11 11 12 13 14 14 14 13 13 14 15 13 12 12 15 17 19 14 13 14 14 14 13 14 14 14 14 14 15 14 14 13 13
0 1 2 4 5 7 8 8 8 9 10 11 12 13 13 13 12 12 14 11 12 16 15 13 16 21 24 17 13 13 14 14 14 14 14 14 14 14 14 15 14 14 13 13
2 3 4 5 5 7 9 10 9 9 10 12 12 12 12 12 12 11 12 16 18 20 15 17 22 23 22 13 13 13 13 14 14 14 14 14 13 14 14 14 14 13 14 15
3 4 5 6 7 7 9 10 10 10 11 10 12 12 11 10 11 13 13 15 18 19 15 17 21 21 16 13 13 13 13 14 14 15 14 14 13 14 14 13 13 14 14 14
4 5 6 7 7 7 8 8 8 9 10 11 11 11 11 11 12 13 12 14 17 18 15 13 14 15 13 13 13 14 14 14 15 14 14 14 15 14 14 14 16 14 14 13
5 6 6 7 7 7 7 8 9 10 10 11 13 13 12 12 12 13 15 14 14 14 13 13 13 13 13 13 14 14 13 13 13 13 13 13 13 13 13 15 14 13 13 13
Wind_Direction
247 150 184 212 207 200 214 230 244 256 257 255 237 224 218 199 185 182 181 184 192 216 249 271 285 294 301 305 309 311 309 308 308 309 308 306 305 304 303 302 299 298 296 294
215 191 230 249 239 226 229 239 247 260 268 272 225 200 191 184 179 185 189 195 210 241 268 283 293 298 300 304 308 308 305 304 306 306 305 305 305 305 304 302 301 299 297 295
230 176 259 256 243 226 221 223 231 246 256 191 182 184 183 182 186 191 193 209 240 264 279 290 297 299 300 303 306 304 301 302 304 304 305 306 306 305 304 304 303 300 298 297
190 183 236 251 109 212 220 234 224 232 212 182 173 158 163 182 188 184 190 230 262 281 289 294 298 299 299 300 301 300 300 301 303 305 305 306 306 305 306 305 303 301 300 299
189 235 264 266 204 185 205 245 217 212 196 172 149 158 180 162 165 171 199 253 280 288 291 292 296 300 300 298 299 299 300 303 306 305 304 305 305 306 307 305 303 302 301 301
188 219 246 251 138 160 183 252 194 189 181 168 167 205 196 159 165 181 226 268 286 292 293 292 299 303 297 298 300 301 304 305 304 303 302 302 304 305 305 304 302 302 299 299
218 233 258 219 144 160 211 272 155 174 172 171 188 198 123 148 173 203 260 281 288 290 291 295 300 297 294 297 299 303 304 301 301 301 301 301 302 302 303 303 302 301 300 299
202 219 243 157 161 198 230 117 153 163 168 175 175 147 152 171 199 241 272 281 289 292 295 299 298 293 293 297 302 304 302 300 300 301 302 300 301 302 304 304 303 303 302 302
201 216 38 168 196 184 144 157 161 162 163 167 172 184 188 212 245 264 274 283 289 292 296 298 297 295 294 299 304 303 300 299 300 301 300 300 301 303 305 303 301 301 302 302
231 243 222 207 201 181 172 164 154 153 156 166 180 190 210 236 256 271 279 285 290 293 295 299 303 300 295 298 301 298 298 300 301 301 301 301 300 299 299 299 299 300 301 302
235 238 210 214 203 181 159 146 143 143 153 168 179 203 228 251 266 276 281 284 287 289 292 296 301 300 300 300 300 298 298 299 300 300 299 299 298 295 295 291 290 295 298 300
232 208 198 199 185 172 162 161 159 155 158 169 194 219 242 260 270 277 282 287 288 288 292 296 300 299 300 301 299 297 298 300 300 299 298 297 299 299 289 287 292 293 293 295
229 149 163 143 156 163 163 159 159 164 170 182 206 232 251 268 276 280 282 284 287 291 295 297 298 297 299 301 299 295 294 296 297 296 296 297 298 300 302 301 296 295 295 297
154 137 143 157 160 156 150 147 147 153 173 201 230 250 262 273 280 283 287 290 293 293 292 293 295 295 299 301 297 294 294 293 292 292 294 294 295 296 298 301 304 304 302 301
173 174 155 142 139 141 140 144 154 174 204 237 253 263 272 280 286 290 293 295 294 291 291 293 294 295 301 300 296 294 293 292 292 293 292 291 292 294 295 296 297 300 303 304
137 127 135 144 151 154 158 168 186 210 236 262 275 281 285 288 289 291 293 294 293 292 294 296 294 296 301 299 295 293 291 289 291 293 293 292 293 294 295 296 297 298 300 304
148 154 159 164 166 171 182 195 210 233 260 273 284 293 294 294 293 294 296 297 293 289 290 290 290 294 295 293 292 292 293 293 292 291 290 291 293 293 293 294 295 296 297 300
173 164 166 166 169 176 192 213 237 260 272 283 292 293 292 293 294 297 299 300 297 293 290 290 291 295 294 292 293 292 292 291 292 292 292 292 292 292 292 292 294 295 297 300
133 134 139 146 158 175 209 248 269 278 283 287 289 291 291 290 290 292 296 297 294 294 296 298 299 297 294 294 294 292 291 291 292 292 293 292 293 292 292 293 293 294 297 299
117 120 122 125 136 193 252 276 286 288 289 291 290 290 290 291 293 295 295 290 285 286 293 297 299 295 294 295 295 292 290 291 293 295 295 293 293 293 294 294 293 294 296 296
116 115 114 122 284 281 281 287 289 290 293 291 287 287 290 293 294 293 292 292 293 296 298 298 296 295 297 298 297 293 292 293 295 296 296 296 295 294 294 293 294 294 295 295
110 107 347 304 297 295 295 293 288 288 290 289 288 287 289 292 294 292 284 283 291 298 301 297 295 296 301 301 297 295 294 295 296 295 295 294 294 294 294 294 294 295 294 294
59 305 297 295 293 295 295 290 286 286 287 289 290 291 291 292 293 292 294 294 297 300 301 294 296 300 303 303 297 296 296 296 295 295 294 294 293 292 293 294 294 294 294 294
301 296 292 294 292 288 289 292 291 289 286 286 283 282 285 290 290 286 286 294 299 299 297 295 298 301 305 302 298 297 296 295 294 294 294 293 293 293 294 293 293 293 293 294
288 285 284 288 289 288 290 295 296 293 291 290 290 290 286 283 286 293 295 296 299 300 298 298 300 302 303 297 297 296 295 293 293 295 295 296 296 296 295 294 293 294 294 294
287 288 286 283 281 286 290 292 292 294 296 296 297 298 297 295 292 294 294 296 297 298 299 298 300 301 299 298 297 297 296 297 297 296 294 296 295 296 295 296 295 294 293 293
288 286 287 288 287 284 286 288 288 291 293 294 297 299 299 298 297 297 298 298 299 299 300 299 299 299 299 298 298 298 298 298 297 297 297 296 295 295 295 296 296 295 294 293
Height
1505 1509 1509 1508 1510 1515 1513 1505 1505 1498 1499 1497 1501 1505 1508 1511 1513 1514 1515 1516 1517 1517 1517 1516 1515 1513 1511 1508 1505 1502 1498 1494 1490 1485 1481 1475 1470 1464 1459 1453 1447 1441 1435 1429
1508 1512 1512 1511 1506 1506 1507 1503 1500 1498 1496 1496 1501 1504 1506 1508 1510 1511 1513 1513 1514 1514 1513 1513 1511 1509 1506 1503 1500 1496 1492 1488 1484 1479 1474 1468 1462 1457 1451 1445 1439 1433 1427 1421
1504 1513 1510 1504 1493 1495 1498 1496 1496 1495 1493 1497 1500 1502 1504 1506 1508 1509 1510 1510 1511 1510 1510 1508 1506 1504 1501 1498 1495 1491 1486 1482 1477 1472 1467 1461 1455 1449 1443 1437 1431 1425 1419 1413
1506 1511 1513 1486 1491 1490 1491 1491 1493 1492 1494 1497 1499 1501 1503 1504 1505 1506 1507 1507 1507 1507 1505 1504 1502 1499 1496 1493 1489 1485 1480 1476 1471 1465 1459 1454 1448 1442 1436 1429 1423 1417 1411 1406
1506 1501 1492 1485 1488 1490 1491 1487 1487 1489 1492 1496 1499 1501 1502 1502 1503 1504 1504 1504 1504 1503 1501 1499 1497 1494 1491 1487 1483 1479 1474 1469 1464 1458 1452 1446 1440 1434 1428 1422 1416 1410 1404 1398
1504 1504 1497 1480 1486 1488 1489 1485 1484 1486 1490 1494 1497 1497 1497 1499 1500 1501 1501 1501 1500 1499 1497 1495 1492 1489 1485 1481 1477 1472 1468 1463 1457 1452 1446 1439 1433 1427 1421 1415 1408 1402 1396 1391
1495 1496 1483 1480 1485 1488 1488 1478 1482 1484 1487 1491 1493 1494 1496 1497 1497 1498 1498 1497 1496 1494 1492 1490 1487 1483 1479 1475 1471 1466 1461 1456 1450 1445 1439 1432 1426 1420 1414 1408 1401 1395 1389 1384
1490 1493 1486 1480 1483 1482 1478 1480 1481 1484 1486 1489 1491 1492 1493 1494 1495 1495 1494 1493 1492 1490 1488 1485 1481 1477 1473 1469 1465 1460 1454 1448 1443 1437 1431 1425 1419 1413 1407 1401 1394 1388 1382 1376
1477 1475 1475 1476 1476 1477 1478 1480 1481 1483 1485 1487 1489 1490 1491 1491 1492 1491 1490 1489 1487 1485 1482 1479 1476 1472 1467 1463 1458 1452 1447 1441 1436 1430 1424 1419 1413 1406 1400 1395 1388 1382 1376 1370
1476 1472 1474 1474 1474 1475 1477 1478 1480 1482 1484 1485 1486 1487 1488 1488 1488 1487 1486 1484 1482 1480 1476 1473 1470 1466 1461 1456 1451 1445 1439 1434 1428 1422 1416 1411 1406 1400 1394 1388 1382 1376 1371 1364
1470 1470 1472 1471 1471 1473 1474 1476 1478 1480 1482 1483 1484 1485 1485 1485 1484 1483 1482 1480 1477 1474 1471 1467 1463 1459 1455 1449 1444 1438 1432 1426 1420 1415 1409 1403 1398 1393 1387 1382 1377 1371 1365 1359
1461 1462 1465 1466 1467 1470 1472 1474 1476 1478 1479 1481 1481 1482 1482 1481 1480 1479 1477 1474 1471 1468 1465 1461 1457 1452 1448 1443 1437 1431 1425 1419 1413 1408 1402 1396 1390 1384 1379 1375 1369 1364 1359 1353
1459 1459 1461 1462 1465 1467 1470 1472 1474 1476 1477 1478 1478 1479 1478 1477 1476 1474 1472 1469 1466 1462 1458 1454 1449 1445 1440 1435 1430 1424 1418 1412 1406 1400 1395 1389 1383 1377 1370 1365 1361 1356 1350 1345
1456 1458 1459 1461 1463 1466 1468 1470 1472 1474 1475 1475 1476 1476 1475 1473 1471 1469 1466 1463 1459 1455 1451 1446 1442 1437 1433 1427 1422 1416 1411 1405 1399 1393 1388 1383 1377 1371 1365 1358 1352 1346 1342 1338
1454 1456 1457 1459 1462 1464 1466 1468 1470 1471 1472 1473 1473 1472 1471 1468 1466 1463 1460 1456 1452 1448 1443 1439 1434 1429 1425 1419 1414 1408 1403 1397 1392 1386 1381 1376 1370 1365 1359 1353 1346 1340 1334 1330
1452 1454 1456 1458 1461 1463 1465 1467 1468 1469 1470 1470 1469 1468 1466 1463 1460 1456 1453 1449 1445 1440 1435 1431 1426 1421 1417 1411 1406 1400 1395 1390 1385 1379 1374 1368 1363 1358 1352 1346 1340 1335 1329 1324
1450 1453 1455 1457 1459 1461 1463 1465 1466 1466 1466 1466 1465 1462 1460 1457 1453 1449 1446 1442 1437 1432 1428 1423 1418 1413 1408 1404 1398 1392 1387 1382 1377 1372 1366 1361 1356 1350 1345 1340 1334 1328 1323 1318
1449 1451 1453 1456 1458 1460 1462 1463 1463 1463 1462 1461 1459 1456 1453 1450 1446 1442 1438 1433 1429 1424 1420 1415 1410 1405 1400 1396 1391 1385 1380 1374 1369 1364 1359 1354 1348 1343 1338 1332 1327 1322 1316 1311
1449 1451 1453 1455 1457 1459 1460 1460 1460 1459 1458 1456 1453 1450 1447 1443 1439 1434 1430 1425 1420 1415 1410 1407 1402 1397 1392 1387 1383 1377 1372 1367 1362 1356 1351 1346 1340 1335 1330 1325 1320 1315 1310 1305
1449 1451 1453 1454 1456 1457 1457 1456 1455 1454 1452 1450 1446 1443 1439 1435 1432 1427 1422 1417 1413 1408 1402 1398 1393 1388 1384 1379 1375 1369 1364 1359 1354 1348 1343 1338 1332 1327 1322 1318 1313 1308 1303 1298
1449 1451 1452 1453 1454 1454 1453 1452 1450 1448 1446 1443 1440 1436 1432 1427 1424 1419 1413 1408 1404 1400 1395 1390 1385 1380 1376 1371 1366 1361 1357 1351 1346 1341 1335 1330 1325 1320 1315 1310 1305 1301 1296 1291
1449 1450 1450 1450 1450 1449 1448 1447 1445 1442 1439 1436 1432 1428 1424 1419 1415 1410 1405 1401 1396 1391 1387 1382 1377 1373 1368 1363 1358 1353 1348 1343 1338 1333 1327 1322 1317 1312 1307 1303 1298 1293 1289 1284
1447 1447 1447 1447 1446 1444 1443 1441 1439 1435 1432 1429 1425 1421 1416 1412 1407 1402 1396 1392 1388 1383 1379 1374 1369 1365 1360 1355 1350 1345 1340 1335 1329 1324 1319 1314 1310 1305 1300 1295 1291 1286 1282 1277
1445 1444 1444 1443 1441 1439 1437 1434 1431 1428 1425 1421 1417 1413 1409 1403 1398 1394 1389 1384 1380 1375 1370 1365 1361 1356 1351 1346 1341 1336 1331 1326 1321 1316 1312 1307 1302 1297 1293 1288 1283 1279 1274 1270
1441 1440 1439 1438 1435 1433 1430 1427 1423 1420 1416 1413 1409 1405 1401 1396 1391 1385 1381 1376 1371 1367 1361 1356 1352 1348 1343 1338 1333 1328 1323 1318 1314 1309 1304 1299 1294 1290 1285 1280 1276 1272 1267 1263
1437 1436 1434 1432 1430 1427 1423 1420 1416 1412 1408 1404 1400 1397 1393 1388 1383 1378 1373 1368 1363 1358 1353 1348 1343 1339 1334 1329 1325 1320 1315 1310 1305 1301 1296 1291 1287 1282 1277 1273 1269 1264 1260 1256
1432 1430 1428 1426 1423 1420 1417 1413 1409 1405 1401 1397 1392 1388 1384 1379 1375 1370 1365 1360 1355 1350 1345 1340 1336 1331 1326 1321 1317 1312 1307 1302 1298 1293 1288 1284 1279 1275 1270 1266 1261 1257 1253 1249